Skip Navigation Links
NOAA logo - Click to go to the NOAA homepage
NOAA's National Weather Service
Alaska Aviation Weather Unit
  NWS logo - Click to go to the NWS homepage
Left Navbar Graphic     10 AKDT = 18 GMT

   
NOAA is celebrating 200 years of science, service, and stewardship. Visit the NOAA 200th celebration Web site to learn more.
USA.gov is the U.S. Government's official Web portal to all Federal, state and local government Web resources and services.
Facebook
NWS on Facebook

Important Change Regarding the AAWU Web Presence

 

Over the last several months, the AAWU has been working to navigate its webpages to a nationally supported server. Security, as well as other needs, have necessitated the change.  We have been given an extension for the site changeover while we diligently work at addressing feedback received. As of July 14, 2017, aawu.arh.noaa.gov will be discontinued. The new AAWU web address is weather.gov/aawu. It is now live and will run in-parallel with the old site until it is discontinued on July 14, 2017. Please continue to send any feedback or questions regarding the new webpages to nws.ar.aawu.webauthors@noaa.gov.  Thank you for your patience during this time of transition.
AAWU Home :: Display TAF Add Bookmark
TAF PABI 102323Z 1023/1204 35010G15KT 9999 SCT080 BKN200
      QNH2960INS
      TEMPO 1100/1103 35025G35KT TX25/1100Z TN11/1112Z=
METAR PABI 261253Z AUTO 23005KT 10SM OVC080 02/02 A2986=

METAR PABI 261353Z AUTO 23006KT 10SM OVC080 02/02 A2986=

METAR PABI 261453Z 23004KT 10SM SCT030 OVC080 03/02 A2986=

METAR PABI 261553Z 29003KT 10SM FEW001 SCT030 BKN080 03/02 A2986=

METAR PABI 261653Z 24004KT 10SM FEW001 SCT045 SCT085 03/03 A2986=

METAR PABI 261753Z 30003KT 10SM FEW001 SCT045 SCT085 04/03 A2986=


NOAA's National Weather Service
Alaska Aviation Weather Unit
6930 Sand Lake Road
Anchorage, AK 99502-1845
Disclaimer
Credits
Glossary
Privacy Policy
About Us
Career Opportunities
Contact AAWU Internet Services Site last modified: April, 17th 2012